iso_date,Year,Hour,Min,DOY,POS_DOY,Lat,Lon,BP,Ts,Ta,has_bp,has_ts,has_ta,BuoyID,Buoy_Type,Buoy_Owner,Logistics,Hemisphere
2013-04-01T09:08:38Z,2013,9,8,91.381,88.537,78.2274,15.605,1002.4,1.6,-999.0,yes,yes,no,300234011589520,unknown,unknown,unknown,North
2013-04-06T15:57:36Z,2013,15,58,96.665,93.821,88.8798,74.7152,1035.2,-15.3,-999.0,yes,yes,no,300234011589520,unknown,unknown,unknown,North
2013-04-06T16:00:28Z,2013,16,0,96.667,93.823,88.8798,74.7152,1035.0,-16.2,-999.0,yes,yes,no,300234011589520,unknown,unknown,unknown,North
2013-04-06T16:59:31Z,2013,17,0,96.708,93.864,88.8798,74.7152,1032.9,-17.7,-999.0,yes,yes,no,300234011589520,unknown,unknown,unknown,North
2013-04-06T18:00:00Z,2013,18,0,96.75,96.75,88.8766,74.433,1033.2,-17.9,-999.0,yes,yes,no,300234011589520,unknown,unknown,unknown,North
2013-04-06T19:00:28Z,2013,19,0,96.792,96.75,88.8766,74.433,1033.5,-18.9,-999.0,yes,yes,no,300234011589520,unknown,unknown,unknown,North
2013-04-06T19:59:31Z,2013,20,0,96.833,96.75,88.8766,74.433,1033.2,-20.3,-999.0,yes,yes,no,300234011589520,unknown,unknown,unknown,North
2013-04-06T21:00:00Z,2013,21,0,96.875,96.875,88.8716,73.9436,1033.2,-21.8,-999.0,yes,yes,no,300234011589520,unknown,unknown,unknown,North
2013-04-06T22:00:28Z,2013,22,0,96.917,96.875,88.8716,73.9436,1033.1,-21.8,-999.0,yes,yes,no,300234011589520,unknown,unknown,unknown,North
2013-04-06T22:59:31Z,2013,23,0,96.958,96.875,88.8716,73.9436,1032.4,-22.5,-999.0,yes,yes,no,300234011589520,unknown,unknown,unknown,North
2013-04-07T00:00:00Z,2013,0,0,97.0,97.0,88.865,73.4354,1033.0,-21.8,-999.0,yes,yes,no,300234011589520,unknown,unknown,unknown,North
2013-04-07T01:00:28Z,2013,1,0,97.042,97.0,88.865,73.4354,1032.3,-22.0,-999.0,yes,yes,no,300234011589520,unknown,unknown,unknown,North
2013-04-07T01:59:31Z,2013,2,0,97.083,97.0,88.865,73.4354,1031.6,-22.4,-999.0,yes,yes,no,300234011589520,unknown,unknown,unknown,North
2013-04-07T03:00:00Z,2013,3,0,97.125,97.125,88.8586,72.8908,1031.1,-22.3,-999.0,yes,yes,no,300234011589520,unknown,unknown,unknown,North
2013-04-07T04:00:28Z,2013,4,0,97.167,97.125,88.8586,72.8908,1030.8,-22.8,-999.0,yes,yes,no,300234011589520,unknown,unknown,unknown,North
2013-04-07T04:59:31Z,2013,5,0,97.208,97.125,88.8586,72.8908,1030.7,-23.1,-999.0,yes,yes,no,300234011589520,unknown,unknown,unknown,North
2013-04-07T06:00:00Z,2013,6,0,97.25,97.25,88.8518,72.2786,1030.2,-23.2,-999.0,yes,yes,no,300234011589520,unknown,unknown,unknown,North
2013-04-07T07:00:28Z,2013,7,0,97.292,97.25,88.8518,72.2786,1029.8,-23.1,-999.0,yes,yes,no,300234011589520,unknown,unknown,unknown,North
2013-04-07T07:59:31Z,2013,8,0,97.333,97.25,88.8518,72.2786,1029.5,-22.9,-999.0,yes,yes,no,300234011589520,unknown,unknown,unknown,North
2013-04-07T09:00:00Z,2013,9,0,97.375,97.375,88.8464,71.5514,1029.2,-22.5,-999.0,yes,yes,no,300234011589520,unknown,unknown,unknown,North
2013-04-07T10:00:28Z,2013,10,0,97.417,97.375,88.8464,71.5514,1028.6,-22.4,-999.0,yes,yes,no,300234011589520,unknown,unknown,unknown,North
2013-04-07T10:59:31Z,2013,11,0,97.458,97.375,88.8464,71.5514,1028.3,-22.1,-999.0,yes,yes,no,300234011589520,unknown,unknown,unknown,North
2013-04-07T12:00:00Z,2013,12,0,97.5,97.5,88.8418,70.9114,1027.9,-22.0,-999.0,yes,yes,no,300234011589520,unknown,unknown,unknown,North
2013-04-07T13:00:28Z,2013,13,0,97.542,97.5,88.8418,70.9114,1027.2,-21.9,-999.0,yes,yes,no,300234011589520,unknown,unknown,unknown,North
2013-04-07T13:59:31Z,2013,14,0,97.583,97.5,88.8418,70.9114,1026.6,-21.5,-999.0,yes,yes,no,300234011589520,unknown,unknown,unknown,North
2013-04-07T15:00:00Z,2013,15,0,97.625,97.625,88.8362,70.3334,1026.2,-21.7,-999.0,yes,yes,no,300234011589520,unknown,unknown,unknown,North
2013-04-07T16:00:28Z,2013,16,0,97.667,97.625,88.8362,70.3334,1026.0,-21.5,-999.0,yes,yes,no,300234011589520,unknown,unknown,unknown,North
2013-04-07T16:59:31Z,2013,17,0,97.708,97.625,88.8362,70.3334,1025.7,-21.6,-999.0,yes,yes,no,300234011589520,unknown,unknown,unknown,North
2013-04-07T18:00:00Z,2013,18,0,97.75,97.75,88.8324,69.7608,1024.9,-21.7,-999.0,yes,yes,no,300234011589520,unknown,unknown,unknown,North
2013-04-07T19:00:28Z,2013,19,0,97.792,97.75,88.8324,69.7608,1025.0,-21.6,-999.0,yes,yes,no,300234011589520,unknown,unknown,unknown,North
2013-04-07T19:59:31Z,2013,20,0,97.833,97.75,88.8324,69.7608,1024.9,-21.4,-999.0,yes,yes,no,300234011589520,unknown,unknown,unknown,North
2013-04-07T21:00:00Z,2013,21,0,97.875,97.875,88.8304,69.2422,1024.7,-21.5,-999.0,yes,yes,no,300234011589520,unknown,unknown,unknown,North
2013-04-07T22:00:28Z,2013,22,0,97.917,97.875,88.8304,69.2422,1024.7,-21.9,-999.0,yes,yes,no,300234011589520,unknown,unknown,unknown,North
2013-04-07T22:59:31Z,2013,23,0,97.958,97.875,88.8304,69.2422,1024.3,-21.9,-999.0,yes,yes,no,300234011589520,unknown,unknown,unknown,North
2013-04-08T00:00:00Z,2013,0,0,98.0,98.0,88.8286,68.8616,1024.2,-21.4,-999.0,yes,yes,no,300234011589520,unknown,unknown,unknown,North
2013-04-08T01:00:28Z,2013,1,0,98.042,98.0,88.8286,68.8616,1024.4,-21.2,-999.0,yes,yes,no,300234011589520,unknown,unknown,unknown,North
2013-04-08T01:59:31Z,2013,2,0,98.083,98.0,88.8286,68.8616,1024.0,-21.2,-999.0,yes,yes,no,300234011589520,unknown,unknown,unknown,North
2013-04-08T03:00:00Z,2013,3,0,98.125,98.125,88.8278,68.6234,1023.4,-21.2,-999.0,yes,yes,no,300234011589520,unknown,unknown,unknown,North
2013-04-08T04:00:28Z,2013,4,0,98.167,98.125,88.8278,68.6234,1023.5,-21.4,-999.0,yes,yes,no,300234011589520,unknown,unknown,unknown,North
2013-04-08T04:59:31Z,2013,5,0,98.208,98.125,88.8278,68.6234,1024.0,-21.5,-999.0,yes,yes,no,300234011589520,unknown,unknown,unknown,North
2013-04-08T06:00:00Z,2013,6,0,98.25,98.25,88.8272,68.4174,1023.9,-21.6,-999.0,yes,yes,no,300234011589520,unknown,unknown,unknown,North
2013-04-08T07:00:28Z,2013,7,0,98.292,98.25,88.8272,68.4174,1023.9,-21.4,-999.0,yes,yes,no,300234011589520,unknown,unknown,unknown,North
2013-04-08T07:59:31Z,2013,8,0,98.333,98.25,88.8272,68.4174,1024.0,-20.8,-999.0,yes,yes,no,300234011589520,unknown,unknown,unknown,North
2013-04-08T09:00:00Z,2013,9,0,98.375,98.375,88.8256,68.2282,1023.9,-20.2,-999.0,yes,yes,no,300234011589520,unknown,unknown,unknown,North
2013-04-08T10:00:28Z,2013,10,0,98.417,98.375,88.8256,68.2282,1023.8,-20.2,-999.0,yes,yes,no,300234011589520,unknown,unknown,unknown,North
2013-04-08T10:59:31Z,2013,11,0,98.458,98.375,88.8256,68.2282,1023.4,-20.2,-999.0,yes,yes,no,300234011589520,unknown,unknown,unknown,North
2013-04-08T12:00:00Z,2013,12,0,98.5,98.5,88.8228,68.043,1023.2,-20.6,-999.0,yes,yes,no,300234011589520,unknown,unknown,unknown,North
2013-04-08T13:00:28Z,2013,13,0,98.542,98.5,88.8228,68.043,1022.9,-20.9,-999.0,yes,yes,no,300234011589520,unknown,unknown,unknown,North
2013-04-08T13:59:31Z,2013,14,0,98.583,98.5,88.8228,68.043,1023.3,-20.8,-999.0,yes,yes,no,300234011589520,unknown,unknown,unknown,North
2013-04-08T15:00:00Z,2013,15,0,98.625,98.625,88.8198,67.8688,1023.0,-21.1,-999.0,yes,yes,no,300234011589520,unknown,unknown,unknown,North
2013-04-08T16:00:28Z,2013,16,0,98.667,98.625,88.8198,67.8688,1022.6,-21.6,-999.0,yes,yes,no,300234011589520,unknown,unknown,unknown,North
2013-04-08T16:59:31Z,2013,17,0,98.708,98.625,88.8198,67.8688,1022.6,-21.3,-999.0,yes,yes,no,300234011589520,unknown,unknown,unknown,North
2013-04-08T18:00:00Z,2013,18,0,98.75,98.75,88.8158,67.664,1022.2,-22.2,-999.0,yes,yes,no,300234011589520,unknown,unknown,unknown,North
2013-04-08T19:00:28Z,2013,19,0,98.792,98.75,88.8158,67.664,1022.0,-22.1,-999.0,yes,yes,no,300234011589520,unknown,unknown,unknown,North
2013-04-08T19:59:31Z,2013,20,0,98.833,98.75,88.8158,67.664,1021.6,-22.2,-999.0,yes,yes,no,300234011589520,unknown,unknown,unknown,North
2013-04-08T21:00:00Z,2013,21,0,98.875,98.875,88.81,67.3514,1021.4,-22.4,-999.0,yes,yes,no,300234011589520,unknown,unknown,unknown,North
2013-04-08T22:00:28Z,2013,22,0,98.917,98.875,88.81,67.3514,1021.2,-21.9,-999.0,yes,yes,no,300234011589520,unknown,unknown,unknown,North
2013-04-08T22:59:31Z,2013,23,0,98.958,98.875,88.81,67.3514,1020.6,-22.3,-999.0,yes,yes,no,300234011589520,unknown,unknown,unknown,North
2013-04-09T00:00:00Z,2013,0,0,99.0,99.0,88.8026,66.9622,1020.6,-22.3,-999.0,yes,yes,no,300234011589520,unknown,unknown,unknown,North
2013-04-09T01:00:28Z,2013,1,0,99.042,99.0,88.8026,66.9622,1020.2,-22.2,-999.0,yes,yes,no,300234011589520,unknown,unknown,unknown,North
2013-04-09T01:59:31Z,2013,2,0,99.083,99.0,88.8026,66.9622,1019.9,-22.1,-999.0,yes,yes,no,300234011589520,unknown,unknown,unknown,North
2013-04-09T03:00:00Z,2013,3,0,99.125,99.125,88.7952,66.5212,1019.3,-22.3,-999.0,yes,yes,no,300234011589520,unknown,unknown,unknown,North
2013-04-09T04:00:28Z,2013,4,0,99.167,99.125,88.7952,66.5212,1018.8,-22.3,-999.0,yes,yes,no,300234011589520,unknown,unknown,unknown,North
2013-04-09T04:59:31Z,2013,5,0,99.208,99.125,88.7952,66.5212,1018.7,-22.2,-999.0,yes,yes,no,300234011589520,unknown,unknown,unknown,North
2013-04-09T06:00:00Z,2013,6,0,99.25,99.25,88.7894,65.864,1018.6,-21.5,-999.0,yes,yes,no,300234011589520,unknown,unknown,unknown,North
2013-04-09T07:00:28Z,2013,7,0,99.292,99.25,88.7894,65.864,1018.2,-20.4,-999.0,yes,yes,no,300234011589520,unknown,unknown,unknown,North
2013-04-09T07:59:31Z,2013,8,0,99.333,99.25,88.7894,65.864,1018.3,-19.8,-999.0,yes,yes,no,300234011589520,unknown,unknown,unknown,North
2013-04-09T09:00:00Z,2013,9,0,99.375,99.375,88.7832,65.09,1018.3,-19.6,-999.0,yes,yes,no,300234011589520,unknown,unknown,unknown,North
2013-04-09T10:00:28Z,2013,10,0,99.417,99.375,88.7832,65.09,1018.1,-19.4,-999.0,yes,yes,no,300234011589520,unknown,unknown,unknown,North
2013-04-09T10:59:31Z,2013,11,0,99.458,99.375,88.7832,65.09,1018.1,-19.3,-999.0,yes,yes,no,300234011589520,unknown,unknown,unknown,North
2013-04-09T12:00:00Z,2013,12,0,99.5,99.5,88.7766,64.406,1018.0,-19.3,-999.0,yes,yes,no,300234011589520,unknown,unknown,unknown,North
2013-04-09T13:00:28Z,2013,13,0,99.542,99.5,88.7766,64.406,1017.9,-19.3,-999.0,yes,yes,no,300234011589520,unknown,unknown,unknown,North
2013-04-09T13:59:31Z,2013,14,0,99.583,99.5,88.7766,64.406,1017.8,-19.3,-999.0,yes,yes,no,300234011589520,unknown,unknown,unknown,North
2013-04-09T15:00:00Z,2013,15,0,99.625,99.625,88.7696,63.849,1017.7,-19.2,-999.0,yes,yes,no,300234011589520,unknown,unknown,unknown,North
2013-04-09T16:00:28Z,2013,16,0,99.667,99.625,88.7696,63.849,1017.8,-19.2,-999.0,yes,yes,no,300234011589520,unknown,unknown,unknown,North
2013-04-09T16:59:31Z,2013,17,0,99.708,99.625,88.7696,63.849,1017.4,-19.2,-999.0,yes,yes,no,300234011589520,unknown,unknown,unknown,North
2013-04-09T18:00:00Z,2013,18,0,99.75,99.75,88.7616,63.2968,1017.3,-19.4,-999.0,yes,yes,no,300234011589520,unknown,unknown,unknown,North
2013-04-09T19:00:28Z,2013,19,0,99.792,99.75,88.7616,63.2968,1017.3,-19.6,-999.0,yes,yes,no,300234011589520,unknown,unknown,unknown,North
2013-04-09T19:59:31Z,2013,20,0,99.833,99.75,88.7616,63.2968,1017.5,-19.5,-999.0,yes,yes,no,300234011589520,unknown,unknown,unknown,North
2013-04-09T21:00:00Z,2013,21,0,99.875,99.875,88.7512,62.7112,1016.9,-19.5,-999.0,yes,yes,no,300234011589520,unknown,unknown,unknown,North
2013-04-09T22:00:28Z,2013,22,0,99.917,99.875,88.7512,62.7112,1016.8,-19.4,-999.0,yes,yes,no,300234011589520,unknown,unknown,unknown,North
2013-04-09T22:59:31Z,2013,23,0,99.958,99.875,88.7512,62.7112,1016.4,-19.5,-999.0,yes,yes,no,300234011589520,unknown,unknown,unknown,North
2013-04-10T00:00:00Z,2013,0,0,100.0,100.0,88.7406,62.1408,1016.2,-19.6,-999.0,yes,yes,no,300234011589520,unknown,unknown,unknown,North
2013-04-10T01:00:28Z,2013,1,0,100.042,100.0,88.7406,62.1408,1016.1,-19.7,-999.0,yes,yes,no,300234011589520,unknown,unknown,unknown,North
2013-04-10T01:59:31Z,2013,2,0,100.083,100.0,88.7406,62.1408,1015.6,-19.8,-999.0,yes,yes,no,300234011589520,unknown,unknown,unknown,North
2013-04-10T03:00:00Z,2013,3,0,100.125,100.125,88.73,61.6242,1015.3,-19.8,-999.0,yes,yes,no,300234011589520,unknown,unknown,unknown,North
2013-04-10T04:00:28Z,2013,4,0,100.167,100.125,88.73,61.6242,1015.2,-20.1,-999.0,yes,yes,no,300234011589520,unknown,unknown,unknown,North
2013-04-10T04:59:31Z,2013,5,0,100.208,100.125,88.73,61.6242,1015.3,-20.3,-999.0,yes,yes,no,300234011589520,unknown,unknown,unknown,North
2013-04-10T06:00:00Z,2013,6,0,100.25,100.25,88.7184,61.1164,1015.2,-20.4,-999.0,yes,yes,no,300234011589520,unknown,unknown,unknown,North
2013-04-10T07:00:28Z,2013,7,0,100.292,100.25,88.7184,61.1164,1015.1,-20.4,-999.0,yes,yes,no,300234011589520,unknown,unknown,unknown,North
2013-04-10T07:59:31Z,2013,8,0,100.333,100.25,88.7184,61.1164,1014.6,-20.4,-999.0,yes,yes,no,300234011589520,unknown,unknown,unknown,North
2013-04-10T09:00:00Z,2013,9,0,100.375,100.375,88.7056,60.5082,1014.4,-20.3,-999.0,yes,yes,no,300234011589520,unknown,unknown,unknown,North
2013-04-10T10:00:28Z,2013,10,0,100.417,100.375,88.7056,60.5082,1014.3,-20.3,-999.0,yes,yes,no,300234011589520,unknown,unknown,unknown,North
2013-04-10T10:59:31Z,2013,11,0,100.458,100.375,88.7056,60.5082,1014.0,-20.1,-999.0,yes,yes,no,300234011589520,unknown,unknown,unknown,North
2013-04-10T12:00:00Z,2013,12,0,100.5,100.5,88.694,59.87,1013.7,-20.1,-999.0,yes,yes,no,300234011589520,unknown,unknown,unknown,North
2013-04-10T13:00:28Z,2013,13,0,100.542,100.5,88.694,59.87,1013.3,-20.1,-999.0,yes,yes,no,300234011589520,unknown,unknown,unknown,North
2013-04-10T13:59:31Z,2013,14,0,100.583,100.5,88.694,59.87,1013.0,-20.2,-999.0,yes,yes,no,300234011589520,unknown,unknown,unknown,North
2013-04-10T15:00:00Z,2013,15,0,100.625,100.625,88.6832,59.3674,1012.5,-20.3,-999.0,yes,yes,no,300234011589520,unknown,unknown,unknown,North
2013-04-10T16:00:28Z,2013,16,0,100.667,100.625,88.6832,59.3674,1012.5,-20.3,-999.0,yes,yes,no,300234011589520,unknown,unknown,unknown,North
2013-04-10T16:59:31Z,2013,17,0,100.708,100.625,88.6832,59.3674,1012.0,-20.4,-999.0,yes,yes,no,300234011589520,unknown,unknown,unknown,North
2013-04-10T18:00:00Z,2013,18,0,100.75,100.75,88.672,58.9514,1011.6,-20.6,-999.0,yes,yes,no,300234011589520,unknown,unknown,unknown,North
2013-04-10T19:00:28Z,2013,19,0,100.792,100.75,88.672,58.9514,1011.5,-20.6,-999.0,yes,yes,no,300234011589520,unknown,unknown,unknown,North
2013-04-10T19:59:31Z,2013,20,0,100.833,100.75,88.672,58.9514,1011.3,-20.6,-999.0,yes,yes,no,300234011589520,unknown,unknown,unknown,North
2013-04-10T21:00:00Z,2013,21,0,100.875,100.875,88.6612,58.543,1011.2,-20.8,-999.0,yes,yes,no,300234011589520,unknown,unknown,unknown,North
2013-04-10T22:00:28Z,2013,22,0,100.917,100.875,88.6612,58.543,1010.9,-20.7,-999.0,yes,yes,no,300234011589520,unknown,unknown,unknown,North
2013-04-10T22:59:31Z,2013,23,0,100.958,100.875,88.6612,58.543,1009.9,-20.9,-999.0,yes,yes,no,300234011589520,unknown,unknown,unknown,North
2013-04-11T00:00:00Z,2013,0,0,101.0,101.0,88.6516,58.1896,1010.7,-21.1,-999.0,yes,yes,no,300234011589520,unknown,unknown,unknown,North
2013-04-11T01:00:28Z,2013,1,0,101.042,101.0,88.6516,58.1896,1010.1,-21.0,-999.0,yes,yes,no,300234011589520,unknown,unknown,unknown,North
2013-04-11T01:59:31Z,2013,2,0,101.083,101.0,88.6516,58.1896,1009.5,-21.0,-999.0,yes,yes,no,300234011589520,unknown,unknown,unknown,North
2013-04-11T03:00:00Z,2013,3,0,101.125,101.125,88.6428,57.9604,1009.0,-21.1,-999.0,yes,yes,no,300234011589520,unknown,unknown,unknown,North
2013-04-11T04:00:28Z,2013,4,0,101.167,101.125,88.6428,57.9604,1008.8,-21.2,-999.0,yes,yes,no,300234011589520,unknown,unknown,unknown,North
2013-04-11T04:59:31Z,2013,5,0,101.208,101.125,88.6428,57.9604,1008.9,-21.3,-999.0,yes,yes,no,300234011589520,unknown,unknown,unknown,North
2013-04-11T06:00:00Z,2013,6,0,101.25,101.25,88.6334,57.752,1009.0,-21.2,-999.0,yes,yes,no,300234011589520,unknown,unknown,unknown,North
2013-04-11T07:00:28Z,2013,7,0,101.292,101.25,88.6334,57.752,1008.6,-21.1,-999.0,yes,yes,no,300234011589520,unknown,unknown,unknown,North
2013-04-11T07:59:31Z,2013,8,0,101.333,101.25,88.6334,57.752,1008.7,-20.9,-999.0,yes,yes,no,300234011589520,unknown,unknown,unknown,North
2013-04-11T09:00:00Z,2013,9,0,101.375,101.375,88.6242,57.5222,1008.8,-20.6,-999.0,yes,yes,no,300234011589520,unknown,unknown,unknown,North
2013-04-11T10:00:28Z,2013,10,0,101.417,101.375,88.6242,57.5222,1008.9,-20.3,-999.0,yes,yes,no,300234011589520,unknown,unknown,unknown,North
2013-04-11T10:59:31Z,2013,11,0,101.458,101.375,88.6242,57.5222,1008.4,-20.2,-999.0,yes,yes,no,300234011589520,unknown,unknown,unknown,North
2013-04-11T11:05:16Z,2013,11,6,101.462,98.618,88.618,57.3666,1008.4,-20.2,-999.0,yes,yes,no,300234011589520,unknown,unknown,unknown,North
2013-04-11T12:00:00Z,2013,12,0,101.5,101.5,88.6156,57.31,1008.2,-20.1,-999.0,yes,yes,no,300234011589520,unknown,unknown,unknown,North
2013-04-11T13:00:28Z,2013,13,0,101.542,101.542,88.613,57.2612,1008.3,-19.9,-999.0,yes,yes,no,300234011589520,unknown,unknown,unknown,North
2013-04-11T13:59:31Z,2013,14,0,101.583,101.583,88.6106,57.2222,1008.2,-20.0,-999.0,yes,yes,no,300234011589520,unknown,unknown,unknown,North
2013-04-11T15:00:00Z,2013,15,0,101.625,101.625,88.6082,57.1952,1007.9,-19.9,-999.0,yes,yes,no,300234011589520,unknown,unknown,unknown,North
2013-04-11T16:00:28Z,2013,16,0,101.667,101.667,88.606,57.1738,1007.9,-19.9,-999.0,yes,yes,no,300234011589520,unknown,unknown,unknown,North
2013-04-11T16:59:31Z,2013,17,0,101.708,101.708,88.6036,57.1502,1007.8,-20.0,-999.0,yes,yes,no,300234011589520,unknown,unknown,unknown,North
2013-04-11T18:00:00Z,2013,18,0,101.75,101.75,88.6016,57.1198,1007.7,-19.9,-999.0,yes,yes,no,300234011589520,unknown,unknown,unknown,North
2013-04-11T19:00:28Z,2013,19,0,101.792,101.792,88.5996,57.0802,1007.8,-20.1,-999.0,yes,yes,no,300234011589520,unknown,unknown,unknown,North
2013-04-11T19:59:31Z,2013,20,0,101.833,101.833,88.5976,57.0262,1008.1,-20.1,-999.0,yes,yes,no,300234011589520,unknown,unknown,unknown,North
2013-04-11T21:00:00Z,2013,21,0,101.875,101.875,88.596,56.9658,1008.2,-20.3,-999.0,yes,yes,no,300234011589520,unknown,unknown,unknown,North
2013-04-11T22:00:28Z,2013,22,0,101.917,101.917,88.5944,56.9064,1008.3,-20.2,-999.0,yes,yes,no,300234011589520,unknown,unknown,unknown,North
2013-04-11T22:59:31Z,2013,23,0,101.958,101.958,88.593,56.8522,1007.7,-20.4,-999.0,yes,yes,no,300234011589520,unknown,unknown,unknown,North
2013-04-12T00:00:00Z,2013,0,0,102.0,102.0,88.5916,56.8012,1008.1,-20.6,-999.0,yes,yes,no,300234011589520,unknown,unknown,unknown,North
2013-04-12T01:00:28Z,2013,1,0,102.042,102.042,88.5904,56.7618,1009.1,-20.5,-999.0,yes,yes,no,300234011589520,unknown,unknown,unknown,North
2013-04-12T01:59:31Z,2013,2,0,102.083,102.083,88.5894,56.7288,1008.8,-20.2,-999.0,yes,yes,no,300234011589520,unknown,unknown,unknown,North
2013-04-12T03:00:00Z,2013,3,0,102.125,102.125,88.5882,56.6884,1008.4,-20.2,-999.0,yes,yes,no,300234011589520,unknown,unknown,unknown,North
2013-04-13T00:00:00Z,2013,0,0,103.0,103.0,88.5266,54.69,1005.7,-17.5,-999.0,yes,yes,no,300234011589520,unknown,unknown,unknown,North
2013-04-13T01:00:28Z,2013,1,0,103.042,103.042,88.5214,54.5736,1005.3,-17.3,-999.0,yes,yes,no,300234011589520,unknown,unknown,unknown,North
2013-04-13T01:59:31Z,2013,2,0,103.083,103.083,88.516,54.4646,1005.0,-17.1,-999.0,yes,yes,no,300234011589520,unknown,unknown,unknown,North
2013-04-13T03:00:00Z,2013,3,0,103.125,103.125,88.5108,54.3686,1004.8,-16.7,-999.0,yes,yes,no,300234011589520,unknown,unknown,unknown,North
2013-04-13T04:00:28Z,2013,4,0,103.167,103.167,88.5054,54.2858,1004.1,-16.4,-999.0,yes,yes,no,300234011589520,unknown,unknown,unknown,North
2013-04-13T04:59:31Z,2013,5,0,103.208,103.208,88.5002,54.2044,1003.6,-16.1,-999.0,yes,yes,no,300234011589520,unknown,unknown,unknown,North
2013-04-13T06:00:00Z,2013,6,0,103.25,103.25,88.4954,54.122,1002.9,-15.9,-999.0,yes,yes,no,300234011589520,unknown,unknown,unknown,North
2013-04-13T07:00:28Z,2013,7,0,103.292,103.292,88.4908,54.0406,1002.8,-15.8,-999.0,yes,yes,no,300234011589520,unknown,unknown,unknown,North
2013-04-13T07:59:31Z,2013,8,0,103.333,103.333,88.4862,53.9592,1002.5,-15.6,-999.0,yes,yes,no,300234011589520,unknown,unknown,unknown,North
2013-04-13T09:00:00Z,2013,9,0,103.375,103.375,88.482,53.8818,1002.2,-15.5,-999.0,yes,yes,no,300234011589520,unknown,unknown,unknown,North
2013-04-13T10:00:28Z,2013,10,0,103.417,103.417,88.478,53.81,1002.0,-15.4,-999.0,yes,yes,no,300234011589520,unknown,unknown,unknown,North
2013-04-13T10:59:31Z,2013,11,0,103.458,103.458,88.4742,53.7448,1001.4,-15.3,-999.0,yes,yes,no,300234011589520,unknown,unknown,unknown,North
2013-04-13T12:00:00Z,2013,12,0,103.5,103.5,88.4708,53.6886,1001.1,-15.3,-999.0,yes,yes,no,300234011589520,unknown,unknown,unknown,North
2013-04-13T13:00:28Z,2013,13,0,103.542,103.542,88.4678,53.6454,1000.9,-15.3,-999.0,yes,yes,no,300234011589520,unknown,unknown,unknown,North
2013-04-13T13:59:31Z,2013,14,0,103.583,103.583,88.4652,53.6128,1000.8,-15.2,-999.0,yes,yes,no,300234011589520,unknown,unknown,unknown,North
2013-04-13T15:00:00Z,2013,15,0,103.625,103.625,88.4632,53.5948,1000.6,-15.1,-999.0,yes,yes,no,300234011589520,unknown,unknown,unknown,North
2013-04-13T16:00:28Z,2013,16,0,103.667,103.667,88.4614,53.5876,1000.4,-15.0,-999.0,yes,yes,no,300234011589520,unknown,unknown,unknown,North
2013-04-13T16:59:31Z,2013,17,0,103.708,103.708,88.46,53.5788,1000.1,-15.0,-999.0,yes,yes,no,300234011589520,unknown,unknown,unknown,North
2013-04-13T18:00:00Z,2013,18,0,103.75,103.75,88.459,53.5732,999.9,-15.2,-999.0,yes,yes,no,300234011589520,unknown,unknown,unknown,North
2013-04-13T19:00:28Z,2013,19,0,103.792,103.792,88.458,53.567,1000.2,-15.3,-999.0,yes,yes,no,300234011589520,unknown,unknown,unknown,North
2013-04-13T19:59:31Z,2013,20,0,103.833,103.833,88.4572,53.554,1000.4,-15.4,-999.0,yes,yes,no,300234011589520,unknown,unknown,unknown,North
2013-04-13T21:00:00Z,2013,21,0,103.875,103.875,88.4566,53.529,1000.4,-15.5,-999.0,yes,yes,no,300234011589520,unknown,unknown,unknown,North
2013-04-13T22:00:28Z,2013,22,0,103.917,103.917,88.4566,53.494,1000.9,-15.6,-999.0,yes,yes,no,300234011589520,unknown,unknown,unknown,North
2013-04-13T22:59:31Z,2013,23,0,103.958,103.958,88.457,53.452,1000.8,-15.6,-999.0,yes,yes,no,300234011589520,unknown,unknown,unknown,North
2013-04-14T00:00:00Z,2013,0,0,104.0,104.0,88.4578,53.4134,1000.9,-15.8,-999.0,yes,yes,no,300234011589520,unknown,unknown,unknown,North
2013-04-14T01:00:28Z,2013,1,0,104.042,104.042,88.459,53.3816,1001.3,-15.9,-999.0,yes,yes,no,300234011589520,unknown,unknown,unknown,North
2013-04-14T01:59:31Z,2013,2,0,104.083,104.083,88.4602,53.3576,1001.4,-16.1,-999.0,yes,yes,no,300234011589520,unknown,unknown,unknown,North
2013-04-14T03:00:00Z,2013,3,0,104.125,104.125,88.4618,53.3482,1001.9,-16.3,-999.0,yes,yes,no,300234011589520,unknown,unknown,unknown,North
2013-04-14T04:00:28Z,2013,4,0,104.167,104.167,88.4638,53.3494,1002.6,-16.5,-999.0,yes,yes,no,300234011589520,unknown,unknown,unknown,North
2013-04-14T04:59:31Z,2013,5,0,104.208,104.208,88.466,53.356,1003.2,-16.7,-999.0,yes,yes,no,300234011589520,unknown,unknown,unknown,North
2013-04-14T06:00:00Z,2013,6,0,104.25,104.25,88.4682,53.3656,1004.1,-16.7,-999.0,yes,yes,no,300234011589520,unknown,unknown,unknown,North
2013-04-14T07:00:28Z,2013,7,0,104.292,104.292,88.4706,53.372,1004.5,-16.6,-999.0,yes,yes,no,300234011589520,unknown,unknown,unknown,North
2013-04-14T07:59:31Z,2013,8,0,104.333,104.333,88.4732,53.3718,1005.3,-16.6,-999.0,yes,yes,no,300234011589520,unknown,unknown,unknown,North
2013-04-14T09:00:00Z,2013,9,0,104.375,104.375,88.4758,53.3616,1006.0,-16.5,-999.0,yes,yes,no,300234011589520,unknown,unknown,unknown,North
2013-04-14T10:00:28Z,2013,10,0,104.417,104.417,88.4786,53.3454,1006.5,-16.5,-999.0,yes,yes,no,300234011589520,unknown,unknown,unknown,North
2013-04-14T10:59:31Z,2013,11,0,104.458,104.458,88.4814,53.3268,1007.1,-16.4,-999.0,yes,yes,no,300234011589520,unknown,unknown,unknown,North
2013-04-14T12:00:00Z,2013,12,0,104.5,104.5,88.4844,53.304,1007.3,-16.4,-999.0,yes,yes,no,300234011589520,unknown,unknown,unknown,North
2013-04-14T13:00:28Z,2013,13,0,104.542,104.542,88.4872,53.2768,1007.5,-16.3,-999.0,yes,yes,no,300234011589520,unknown,unknown,unknown,North